GEFSSGP_500_meanwind_078.txt.gz
Wind_Speed
8 8 7 7 6 5 5 6 6 7 7 8 8 8 8 8 10 11 12 13 13 13 13 13 13 14 14 15 15 15 15 14 14 14 13 13 12 12 11 11 11 11 10 10 10 10 10 10 10
7 7 6 5 5 5 6 7 8 8 9 9 10 10 10 11 12 12 14 15 14 14 14 15 15 15 16 16 16 18 17 17 16 16 15 15 14 13 13 12 11 11 10 10 10 10 10 10 10
6 6 5 5 5 5 7 8 9 9 10 11 11 12 13 13 14 14 15 16 16 15 15 16 17 17 18 18 19 19 20 20 19 18 18 17 16 16 15 14 13 12 11 10 10 9 9 9 9
6 6 6 6 7 8 9 10 11 11 12 13 13 13 14 15 16 16 17 18 18 18 18 18 18 19 20 21 21 21 21 22 22 22 21 20 19 18 17 16 14 13 12 11 10 10 9 10 9
6 5 7 8 9 11 12 12 13 14 15 16 16 16 17 18 19 19 20 20 21 21 21 22 21 21 22 23 24 23 22 23 24 24 24 23 22 21 19 18 17 15 14 13 11 10 10 10 9
7 7 8 10 11 13 14 14 16 17 18 20 20 20 20 21 22 22 23 24 24 24 24 25 25 25 24 25 25 24 23 24 25 26 25 25 24 23 22 21 19 18 16 15 13 12 11 10 10
8 9 10 12 13 14 15 17 18 20 21 22 23 23 24 24 25 26 26 27 27 27 27 28 27 27 28 27 27 27 26 26 26 26 27 26 25 25 25 24 22 21 19 17 15 14 12 11 10
11 10 11 13 16 16 18 19 20 22 23 23 24 25 26 26 27 27 28 28 29 29 30 30 30 30 30 30 30 30 29 29 28 28 28 27 27 27 26 26 25 23 20 19 18 16 14 13 11
12 11 11 14 17 18 20 21 22 24 25 24 25 26 27 27 28 29 29 29 30 30 31 31 32 33 33 33 33 33 32 32 32 32 31 29 28 29 28 27 27 26 24 21 20 19 17 15 13
13 13 15 17 19 20 21 23 23 25 26 26 25 26 27 28 28 28 28 28 29 29 30 30 31 32 33 34 34 34 35 35 34 34 33 32 31 30 30 29 29 27 26 24 22 22 20 17 15
14 16 18 19 20 21 22 23 24 25 26 26 27 26 26 27 27 28 28 28 28 29 29 29 30 30 31 32 33 34 35 35 35 35 34 33 33 32 32 31 29 29 28 27 25 24 23 20 18
16 17 18 20 20 22 23 23 24 25 25 26 26 26 26 26 26 25 25 26 26 26 27 27 28 29 30 31 31 33 34 34 35 35 35 35 34 33 32 32 31 30 30 29 27 26 24 23 21
18 17 18 20 21 22 23 24 24 24 24 25 24 24 24 24 24 24 24 24 25 24 25 25 26 27 28 29 30 31 32 33 34 34 35 35 34 35 34 33 32 31 30 31 30 29 27 24 23
19 17 19 21 21 22 23 24 23 23 23 23 22 22 22 22 22 22 22 23 23 23 23 24 24 25 26 26 27 28 29 30 31 32 33 34 34 33 33 33 33 32 31 31 30 29 28 27 26
19 19 20 20 21 21 23 24 23 21 20 21 21 20 20 20 20 20 21 21 22 23 23 23 23 23 23 24 24 24 25 26 27 28 30 31 33 33 33 34 33 33 33 32 30 29 28 28 27
17 17 18 19 21 20 22 24 22 20 19 19 19 19 19 19 19 20 21 21 22 23 23 23 23 22 22 22 21 21 21 22 23 24 26 27 29 31 32 33 34 34 33 33 33 32 29 28 28
15 14 15 19 20 20 21 21 20 17 17 17 17 18 18 18 18 19 20 21 22 22 23 23 22 22 22 21 20 19 19 20 20 21 23 24 26 27 29 30 32 34 35 33 34 33 31 30 30
14 15 14 19 23 20 20 19 17 15 15 16 16 17 17 18 19 20 20 21 22 22 22 23 23 22 22 21 19 19 18 18 18 19 20 21 22 24 26 28 30 32 34 34 34 34 33 31 31
14 15 15 20 21 19 17 15 14 14 13 14 15 16 17 18 19 19 20 21 22 22 22 23 23 23 22 21 19 19 18 17 16 16 17 19 20 21 23 25 28 29 31 33 34 35 35 33 32
14 14 16 18 18 15 13 12 11 11 12 13 14 16 17 17 18 19 20 20 21 22 22 23 23 23 22 21 20 19 18 17 16 15 15 16 18 19 20 22 24 27 29 31 32 34 35 35 35
15 17 16 16 15 12 10 9 8 8 10 12 13 14 15 17 18 19 19 20 22 22 23 23 23 23 22 21 20 19 18 17 16 15 14 15 16 17 18 20 22 24 26 29 31 32 35 36 35
16 15 13 12 11 8 7 8 8 9 10 11 12 13 14 16 17 18 19 20 21 22 23 24 24 23 22 22 20 19 19 18 17 15 14 14 14 15 17 18 19 21 24 26 29 31 33 35 36
15 12 10 9 7 5 5 6 8 9 9 10 11 12 14 15 16 18 19 20 21 22 23 24 24 23 23 22 21 21 20 19 18 17 15 15 14 14 15 16 18 20 22 24 27 29 32 34 36
12 10 7 5 4 3 4 6 8 8 8 10 11 12 13 14 16 17 19 20 21 22 23 23 23 23 23 23 22 21 21 20 19 18 17 16 15 14 14 15 16 18 20 22 25 28 31 32 34
11 9 6 1 4 5 6 6 6 6 7 9 10 11 12 14 15 17 18 19 21 22 22 23 23 23 23 24 23 22 22 21 20 19 18 17 15 15 15 15 16 17 19 20 23 25 28 31 32
10 10 9 7 4 8 6 5 4 5 6 7 9 10 12 13 15 16 17 19 20 21 22 23 23 24 24 24 24 23 23 22 21 20 20 18 17 16 15 15 16 17 18 20 21 23 25 28 30
11 11 10 9 8 6 5 3 2 4 5 6 8 10 11 13 14 16 17 19 20 21 22 23 23 24 25 25 25 24 24 23 23 22 21 20 19 18 17 16 16 17 18 19 21 22 24 27 29
11 10 10 10 8 5 5 5 3 3 4 6 8 10 11 13 14 15 17 18 19 20 21 22 23 24 25 25 25 25 25 25 24 24 23 22 21 20 19 18 17 17 17 17 18 20 22 25 27
11 11 10 9 7 7 7 4 2 3 4 6 8 10 11 13 14 15 16 17 19 20 21 22 23 24 25 25 26 26 26 26 26 25 25 24 23 22 21 19 17 16 16 16 16 18 20 22 25
11 11 10 10 9 7 5 2 2 2 4 6 8 10 11 13 14 15 16 18 18 19 20 21 22 23 24 25 25 26 26 26 26 26 27 26 26 24 22 20 19 17 15 14 14 16 17 19 21

GEFSSGP_500_meanwind_084.txt.gz
Wind_Speed
4 4 4 4 3 4 4 6 7 7 6 7 7 8 9 9 9 10 11 11 12 11 12 12 13 13 14 15 15 16 16 17 17 17 18 17 17 17 16 15 15 14 14 13 13 13 13 12 12
4 4 4 5 4 5 5 6 7 8 7 7 8 9 10 11 11 11 12 12 14 13 14 14 15 15 16 17 17 18 18 19 19 20 20 20 19 19 18 18 17 16 15 14 13 13 13 13 12
5 4 5 6 5 7 6 7 8 9 10 10 11 11 12 13 13 14 14 14 16 16 16 17 17 17 18 19 19 20 20 21 21 22 23 23 22 21 21 20 19 18 16 15 14 14 13 13 13
5 5 7 7 8 9 7 7 9 10 11 12 14 15 15 16 17 17 17 18 19 19 19 20 20 20 21 21 21 21 22 22 23 24 24 25 26 25 23 23 22 20 19 17 16 14 14 13 13
6 7 8 10 11 9 9 9 10 11 12 14 16 17 18 19 19 20 20 21 22 22 22 22 23 23 23 24 24 24 24 24 24 25 25 26 27 27 26 25 24 23 21 19 18 16 15 14 13
7 10 11 12 11 11 11 12 12 13 14 16 18 19 20 20 21 22 23 23 23 24 24 25 25 25 25 26 26 26 27 27 27 27 27 28 28 27 26 26 25 24 23 21 20 18 16 15 14
10 12 13 14 14 13 13 13 14 15 17 18 19 20 20 21 22 22 23 23 24 24 25 26 26 26 27 28 28 29 29 29 29 29 29 29 29 29 28 28 26 25 25 24 22 20 18 17 15
12 14 14 14 14 14 14 16 16 17 17 19 20 21 20 20 21 22 22 22 23 24 25 25 26 26 27 28 29 30 31 31 31 31 31 31 29 29 29 29 28 27 26 26 25 23 21 19 17
13 15 16 14 14 15 16 17 17 18 18 19 20 20 20 21 21 21 21 21 22 22 23 23 23 24 25 26 28 29 31 31 32 32 32 32 31 31 30 30 29 29 28 26 26 25 24 21 19
15 16 16 15 14 15 15 16 17 17 19 19 19 19 19 19 19 19 19 19 19 20 20 21 22 22 23 24 25 26 28 29 30 31 32 33 33 32 31 30 29 29 29 29 28 27 26 24 22
16 15 14 13 14 15 15 16 17 17 18 18 18 18 18 18 18 17 18 18 19 19 19 20 20 21 21 22 23 24 26 27 28 29 31 31 32 33 33 32 29 28 27 28 28 29 28 26 24
16 15 14 14 14 15 15 16 17 17 18 18 18 18 18 17 17 18 17 18 18 18 19 19 20 20 20 21 22 23 24 25 26 27 29 30 30 31 33 33 31 30 29 28 28 27 27 28 26
16 14 13 14 14 14 14 15 15 16 17 17 17 18 18 17 17 17 17 17 17 18 18 18 19 20 20 20 20 21 22 22 23 24 26 28 28 29 30 32 32 31 31 28 28 28 27 27 28
17 15 13 13 13 13 13 13 13 15 15 16 16 16 16 16 17 17 16 17 17 17 18 18 19 19 19 19 19 19 19 19 20 21 22 24 26 27 28 29 30 31 31 30 29 28 28 28 28
17 15 12 12 11 12 11 11 12 13 13 13 14 14 15 16 16 16 16 16 17 17 18 18 19 19 19 19 18 18 18 17 17 18 19 20 22 24 26 27 29 29 30 31 31 29 29 28 28
16 15 13 11 10 11 11 11 11 11 11 12 12 14 14 15 15 16 16 17 17 18 19 19 20 20 20 19 19 18 17 16 16 16 16 17 19 20 22 25 27 28 29 30 31 31 31 30 29
16 14 12 11 11 11 10 9 8 10 10 11 11 13 13 14 15 16 16 17 18 19 19 20 21 21 20 20 19 18 17 16 15 14 14 15 16 18 20 22 24 26 28 29 30 31 31 31 31
14 13 13 12 11 11 10 8 8 9 10 10 10 11 12 13 14 16 16 18 18 19 20 21 21 21 21 20 19 18 17 16 14 13 13 12 13 15 18 20 22 24 26 28 29 30 31 32 32
14 13 13 13 11 10 8 8 8 8 8 8 10 11 11 13 14 15 16 17 18 19 20 21 22 22 21 21 20 19 17 16 15 13 12 11 11 11 14 17 19 21 23 25 27 29 30 31 31
14 13 12 11 11 10 8 7 6 6 6 7 9 10 11 12 14 15 16 17 18 19 20 21 21 22 22 21 21 20 18 17 15 14 13 12 10 10 10 12 15 18 20 22 25 26 29 30 31
13 12 12 12 10 10 8 6 4 3 3 6 8 10 11 12 13 14 16 17 18 19 20 20 21 22 22 22 21 21 19 17 16 15 14 13 11 10 9 10 12 14 17 19 22 24 26 29 30
12 11 11 11 10 9 7 4 2 1 2 4 6 8 9 11 13 14 16 17 18 19 20 21 21 22 22 22 22 22 21 19 18 16 15 14 12 10 9 9 9 11 14 17 19 22 24 27 29
11 11 11 11 9 8 6 4 2 2 1 3 4 6 8 10 12 14 15 16 17 19 20 21 22 22 22 22 22 22 21 20 19 18 17 15 14 12 11 10 10 11 12 15 17 20 23 25 28
11 11 11 10 9 8 6 4 3 4 3 3 4 5 8 9 11 12 14 15 17 18 19 20 21 22 22 22 22 22 22 21 20 19 18 17 16 14 13 11 10 10 12 14 16 19 22 24 27
12 12 12 11 10 9 6 5 5 4 3 3 4 5 7 8 10 11 13 15 16 17 18 20 21 22 22 22 22 22 22 22 21 20 19 19 18 17 15 13 11 11 11 13 15 17 20 23 26
12 12 12 12 12 9 7 6 5 4 3 3 3 5 6 8 9 11 13 14 16 17 18 19 20 21 22 22 22 22 22 22 22 21 21 20 19 19 17 15 13 12 11 12 14 16 18 21 24
12 12 12 12 12 10 9 7 6 4 3 2 3 4 5 7 9 11 13 14 16 17 18 19 19 20 21 22 22 23 22 22 22 22 22 21 20 19 19 17 15 13 12 11 13 14 16 19 22
12 12 12 13 12 11 9 8 7 5 3 1 1 3 5 7 9 11 13 14 15 17 17 18 19 20 21 21 22 23 23 23 23 23 23 22 21 21 20 19 17 15 13 12 12 13 15 17 20
11 12 12 12 12 11 9 8 7 5 4 2 1 2 4 6 9 11 13 14 15 17 17 18 19 20 21 21 22 22 23 23 23 23 23 23 22 22 22 21 19 17 14 13 13 13 13 15 17
11 12 12 12 12 10 9 8 7 6 5 3 1 2 5 7 9 11 13 14 15 16 17 18 19 20 21 21 22 22 22 23 23 23 23 23 22 22 22 22 21 19 17 15 14 13 13 13 14

GEFSSGP_500_meanwind_090.txt.gz
Wind_Speed
4 5 6 5 3 2 3 3 4 5 6 7 8 9 10 11 12 13 13 13 13 13 13 13 14 14 15 16 17 17 17 17 17 17 16 16 15 15 15 14 13 13 12 11 10 10 11 10 10
6 6 7 5 4 5 4 4 5 7 8 9 10 11 12 13 14 15 15 16 16 15 15 16 16 17 17 18 19 19 19 19 19 19 19 18 18 17 17 17 15 15 14 13 12 11 11 11 10
7 8 8 6 5 6 6 5 7 8 9 10 12 13 14 15 17 17 18 18 18 19 19 19 19 20 21 21 21 22 21 21 21 22 21 20 20 19 19 19 18 17 16 15 14 13 12 12 11
8 10 9 7 7 6 7 8 9 10 11 12 13 15 16 17 18 19 20 20 21 22 22 22 22 23 23 24 24 25 24 23 24 23 23 23 22 22 21 20 20 19 18 18 16 15 14 13 12
9 11 11 9 8 7 8 10 11 12 13 13 15 16 18 19 19 20 20 21 22 22 23 24 24 24 25 27 27 27 27 26 26 26 26 25 24 24 23 23 23 21 20 20 19 17 15 14 13
11 12 13 12 9 9 10 11 12 13 15 15 16 18 19 19 19 19 20 20 20 21 22 23 23 24 25 26 26 27 28 29 29 28 28 28 26 26 26 25 24 23 22 21 20 19 18 16 15
12 13 14 13 12 12 12 13 14 16 16 16 17 18 18 18 18 18 19 19 19 20 20 21 21 22 22 23 24 25 27 29 30 30 30 30 29 28 28 27 26 25 24 23 21 21 20 19 17
14 15 14 14 14 14 14 14 15 16 16 17 17 16 17 17 17 17 18 18 18 18 18 19 19 20 20 21 22 23 24 26 28 29 30 30 31 30 29 29 28 27 26 25 23 23 22 20 19
15 15 15 14 14 15 14 15 16 17 17 16 16 16 16 16 16 17 16 16 17 17 17 18 18 18 19 20 21 23 23 24 25 27 29 30 31 31 31 31 29 28 28 27 26 25 24 21 20
16 15 15 15 14 14 14 16 17 16 15 15 15 14 15 15 15 15 15 15 15 16 16 16 17 17 18 19 20 21 23 24 24 25 26 28 29 30 31 32 31 30 29 28 27 25 24 23 21
17 17 15 15 15 15 16 15 14 14 14 14 13 14 14 14 14 14 14 14 15 15 15 16 16 17 18 19 19 20 21 22 23 24 25 26 27 28 30 31 32 31 29 28 27 26 25 24 23
18 17 17 16 15 15 15 15 14 13 13 13 13 13 13 12 12 12 13 13 14 15 15 15 16 16 17 18 18 19 19 20 21 22 23 25 25 26 27 29 31 31 31 30 28 27 25 24 24
19 18 16 15 14 15 15 14 13 12 11 11 12 11 10 10 11 11 12 13 14 15 15 16 16 17 17 18 18 18 18 18 19 19 20 22 23 25 26 27 29 30 30 30 29 29 27 26 25
19 18 17 15 14 15 14 13 12 11 10 10 10 9 9 9 9 11 12 13 14 15 16 16 17 17 18 18 18 18 18 18 18 18 18 19 21 22 24 24 26 28 29 29 30 30 28 28 26
19 18 16 14 12 12 12 12 11 10 9 9 9 8 7 8 9 10 11 13 14 15 16 17 17 18 19 19 19 19 18 18 17 17 16 17 18 19 20 22 23 26 28 28 28 29 29 29 29
19 17 15 12 11 12 12 12 10 9 8 8 7 6 6 7 9 10 11 12 14 15 16 17 18 19 19 20 20 19 19 18 17 16 15 15 15 15 17 18 20 23 25 26 26 27 28 28 29
18 17 14 12 11 10 10 11 10 9 8 7 6 5 5 6 8 9 11 12 14 15 16 17 18 19 20 20 20 20 19 19 18 16 15 13 13 13 13 15 17 19 22 24 25 26 27 27 28
17 15 12 12 11 10 10 10 10 9 7 6 5 4 4 5 7 8 10 12 14 15 16 18 19 20 21 21 21 20 20 19 18 17 15 13 12 11 11 12 15 17 19 21 23 24 25 26 28
17 14 12 12 11 10 10 11 10 9 7 6 5 3 2 4 6 8 10 12 13 15 16 18 19 20 21 21 21 21 21 20 19 18 16 14 12 11 10 10 11 13 16 19 21 22 23 24 27
16 14 14 12 11 11 10 10 10 8 7 6 4 3 1 3 5 7 9 11 13 15 16 18 19 21 21 21 22 22 21 20 19 18 17 15 13 11 10 9 8 10 12 15 18 20 22 23 25
14 14 14 13 12 12 11 10 10 8 7 5 5 4 2 2 4 6 8 11 13 14 16 18 19 20 21 21 22 22 21 20 19 18 17 16 14 13 11 9 8 7 9 11 14 17 20 22 23
15 15 15 14 13 12 12 10 10 9 7 6 5 4 2 2 3 5 8 10 12 14 16 17 19 20 21 21 22 22 22 21 20 19 18 17 15 13 12 10 8 7 7 9 12 14 17 20 22
16 16 15 14 14 12 11 11 10 9 8 6 6 5 3 1 2 5 8 10 12 14 15 17 18 19 20 21 22 22 22 22 21 20 19 18 16 14 12 11 10 8 7 7 10 12 15 17 20
16 15 15 14 13 12 11 10 9 9 8 7 6 5 2 0 2 5 8 10 12 14 15 16 17 18 19 20 21 22 22 22 21 21 19 19 17 15 13 11 10 9 9 7 8 10 13 15 18
15 15 15 14 13 11 11 10 9 9 9 7 6 5 2 1 2 5 8 10 12 13 15 16 17 18 19 20 21 21 21 21 21 21 20 19 18 17 15 13 12 11 10 9 8 10 12 14 17
15 15 15 14 13 12 11 10 10 10 10 8 7 5 3 2 3 5 8 10 12 13 14 15 16 17 18 19 20 21 21 21 21 21 20 19 19 18 16 15 13 12 11 10 9 9 10 12 15
15 15 15 15 14 13 11 10 10 11 10 9 7 5 3 2 3 6 8 10 12 13 14 15 16 17 18 18 19 20 20 20 20 20 20 20 19 18 17 16 15 14 12 11 10 9 10 12 13
14 14 15 16 15 13 11 10 10 11 10 9 8 6 4 3 4 6 8 10 11 13 13 14 15 16 17 18 19 19 20 20 20 20 20 19 19 19 18 17 16 15 14 12 11 11 11 12 13
14 15 16 16 15 14 12 11 12 12 11 10 8 6 5 4 5 6 8 10 11 12 13 14 15 16 17 18 19 19 20 20 20 20 20 19 19 19 19 18 17 16 15 13 13 12 12 12 12
14 15 15 16 16 14 12 11 13 12 11 10 9 7 6 5 6 7 8 9 11 12 13 14 15 16 16 17 18 19 20 20 20 20 19 19 19 19 19 18 18 17 15 14 14 13 13 12 11

GEFSSGP_500_meanwind_096.txt.gz
Wind_Speed
4 5 5 5 4 3 3 4 4 3 4 5 6 7 8 9 10 11 13 14 14 15 14 14 14 14 15 15 16 18 18 18 18 17 16 16 16 15 16 15 14 14 14 13 12 12 11 10 10
6 6 6 5 4 4 5 6 5 5 6 7 8 9 10 11 12 13 14 15 16 16 16 16 17 17 18 19 20 20 21 20 21 20 19 18 18 18 17 17 16 16 16 15 14 14 12 11 11
8 7 6 5 5 5 6 7 6 6 7 8 10 11 12 13 14 15 16 17 17 17 18 18 19 19 20 21 21 21 22 22 23 23 21 21 20 20 19 19 19 18 18 17 16 15 14 13 12
9 8 7 6 5 6 6 6 7 8 9 10 12 13 14 15 16 16 16 17 17 18 18 18 19 20 21 22 23 23 24 24 24 25 24 24 24 23 22 21 21 21 20 19 18 18 16 15 14
10 10 9 7 7 7 7 8 9 10 10 11 13 14 15 16 16 16 15 16 16 16 16 17 18 19 20 21 22 24 25 26 27 28 28 28 26 26 25 24 23 23 23 22 21 19 19 18 16
12 11 10 9 9 9 9 10 10 10 11 12 13 14 15 15 15 15 15 15 15 15 16 16 16 17 17 19 20 22 23 25 26 27 28 28 28 28 28 27 27 25 24 23 22 22 20 20 18
13 12 11 11 10 10 10 10 10 11 12 13 14 15 15 14 14 14 14 14 14 14 14 14 15 16 16 17 18 19 21 23 23 25 26 27 27 27 28 28 28 27 26 24 23 23 23 22 20
15 13 13 11 11 10 10 10 11 12 13 13 14 14 14 13 13 13 13 13 13 13 13 13 14 15 15 16 17 18 19 21 22 22 24 25 27 27 28 28 28 28 27 26 25 24 24 23 22
16 15 14 12 11 11 11 11 12 12 13 13 14 13 13 13 12 12 12 11 11 11 12 12 13 13 14 15 16 17 18 19 21 22 23 24 25 26 28 28 28 28 28 27 26 25 26 24 24
17 16 15 13 12 12 11 11 12 13 14 13 12 12 12 12 11 10 10 10 10 10 10 11 12 12 13 14 15 16 17 18 19 20 22 23 24 25 25 27 28 28 28 28 27 27 26 25 25
18 18 16 14 13 13 13 12 13 13 13 12 11 11 11 10 9 8 8 8 9 9 10 11 11 12 13 14 15 16 17 17 18 19 20 20 21 23 24 25 26 27 28 28 28 28 26 26 26
20 19 18 16 15 14 13 13 14 13 12 11 10 10 10 9 8 7 7 7 8 9 10 10 11 12 13 14 15 16 16 17 17 17 18 19 20 20 22 24 24 25 27 28 28 28 27 26 27
21 20 18 16 15 14 14 14 14 13 11 10 10 9 9 8 7 6 6 7 7 8 9 10 11 12 13 14 14 15 15 15 16 16 17 18 19 19 20 22 23 24 26 27 28 28 28 28 27
20 19 18 16 15 14 14 13 13 12 12 10 10 8 7 7 6 6 6 6 7 8 9 10 11 12 13 14 14 15 15 15 15 15 15 15 16 17 19 19 21 23 24 26 27 27 27 27 27
20 19 18 16 15 15 14 13 12 12 12 10 9 7 6 6 5 5 5 6 6 7 9 10 11 12 13 14 15 15 15 15 15 14 14 14 14 15 16 18 19 20 22 24 25 26 27 26 25
20 18 17 16 15 15 14 14 12 12 12 10 8 7 6 5 5 5 5 5 6 7 9 10 11 12 13 14 15 16 16 16 15 14 14 13 13 13 13 15 16 17 19 21 23 24 25 26 25
19 17 16 15 15 14 13 13 12 12 11 9 8 7 5 5 5 4 5 5 6 7 8 10 11 12 14 14 15 16 16 16 15 14 14 13 12 11 11 12 13 14 16 18 20 21 23 25 25
17 16 16 15 14 14 13 13 13 12 11 9 8 7 6 5 5 5 5 5 6 7 8 9 11 12 14 15 15 16 17 16 15 14 14 13 12 11 9 9 9 10 12 15 17 19 21 23 25
17 16 15 15 14 13 13 13 13 11 10 9 8 7 6 6 5 5 5 5 6 7 8 9 10 12 13 14 15 16 17 16 15 14 14 13 12 10 8 7 7 7 9 12 14 16 19 21 23
16 15 14 14 13 13 12 12 13 12 11 9 9 8 7 6 6 6 5 5 6 7 8 9 10 12 13 14 16 16 17 17 16 15 14 14 12 10 8 7 7 6 7 8 11 14 16 18 21
15 14 14 13 12 13 12 12 13 12 11 10 9 8 7 7 6 6 5 5 6 7 8 10 11 12 13 14 15 16 17 17 16 15 14 14 13 11 9 8 6 6 6 6 8 11 13 16 18
15 14 14 13 12 12 12 12 12 12 11 10 9 9 8 7 6 6 5 5 6 7 8 10 11 12 13 14 15 16 16 16 16 15 14 14 13 12 11 8 7 5 4 5 7 9 11 13 15
15 14 14 13 12 12 12 12 11 12 11 10 9 9 8 7 6 6 6 6 6 7 8 9 10 11 12 13 14 15 16 16 16 15 15 14 13 13 11 9 7 6 4 4 5 7 9 12 14
14 14 13 12 12 12 12 12 10 11 11 10 10 9 9 8 6 6 6 6 6 7 8 9 10 11 12 13 14 15 15 16 16 15 15 14 14 13 12 10 8 7 5 4 5 6 8 11 13
14 13 12 12 12 13 12 12 11 11 10 10 10 10 9 8 7 6 6 6 6 7 8 9 10 11 12 12 13 14 15 16 16 15 15 14 14 13 13 11 10 8 7 5 5 6 7 10 12
13 12 12 12 12 13 12 12 12 11 11 10 10 10 10 9 8 7 6 6 6 7 8 8 9 10 11 12 13 14 15 16 16 15 15 14 14 14 13 12 11 9 8 7 5 5 6 8 11
13 13 13 13 13 12 12 11 12 12 11 11 11 11 10 9 8 7 7 6 6 7 8 8 9 10 11 12 13 14 15 15 15 15 15 15 14 14 13 12 12 10 9 8 7 6 6 7 9
12 13 13 13 14 13 11 11 12 12 12 12 12 12 11 10 9 8 7 6 6 7 7 8 9 10 11 12 13 14 14 15 15 15 15 15 14 14 13 13 12 11 10 9 8 7 7 7 8
12 13 13 14 15 14 13 12 13 13 13 13 13 13 13 11 10 9 8 7 6 7 7 8 9 10 10 11 12 13 14 15 15 15 15 14 14 14 14 13 12 12 11 10 9 8 8 8 9
13 13 14 15 15 14 14 12 15 15 15 15 15 15 14 13 11 10 9 7 7 7 7 8 9 10 10 11 12 13 14 14 14 15 15 14 14 14 14 14 13 12 12 11 10 9 9 9 10